Helicity
98 82 45 22 -3 -30 6 -33 0 58 4 133 15 91 39 16 18 -4 3 -4 20 42 96 111 28 -31 -26 18 57 57 38 308 371 305 74 221 272 488 479 369 359 370 258 207
82 59 9 1 -20 -16 21 -19 -21 -13 -7 105 52 18 35 7 12 29 34 20 42 19 16 42 53 66 -31 31 43 4 15 95 314 296 208 172 299 386 353 510 485 440 339 246
54 28 11 -11 -24 -18 47 9 46 -4 -9 8 17 14 15 5 56 38 33 36 49 30 27 16 13 -1 1 1 -4 56 12 -43 -34 155 216 186 161 23 121 192 448 438 409 461
28 5 5 -9 -3 1 36 9 25 21 36 24 15 13 14 24 10 19 5 7 0 -8 4 16 7 22 26 47 63 37 36 14 -4 -38 20 94 95 147 119 47 1 175 394 422
9 -1 0 10 7 36 36 36 15 6 20 22 8 19 28 -1 1 33 11 2 -15 -10 1 -7 3 18 19 37 47 37 38 84 53 105 72 47 19 111 92 107 103 66 46 8
1 -5 -2 18 36 56 58 38 31 35 4 5 39 34 39 15 10 34 46 36 55 1 4 20 47 -6 12 21 28 25 28 18 44 206 136 94 134 222 144 115 38 -15 -9 -104
-17 -11 -6 0 35 68 59 43 38 26 24 32 30 26 19 39 43 60 50 28 17 85 51 41 72 91 121 131 100 82 25 4 11 54 54 242 62 105 102 237 129 154 136 55
-38 -17 -9 3 38 64 48 42 45 55 33 31 23 3 24 22 4 7 29 -10 69 115 78 11 20 30 24 10 35 91 82 10 18 14 70 19 96 110 74 67 142 18 133 80
-48 -24 -14 -2 23 56 56 46 40 66 57 18 24 41 35 68 79 62 57 88 90 55 20 6 12 19 -6 -1 -3 43 70 108 62 64 37 42 47 99 124 -5 81 141 25 8
-47 -28 -16 1 12 70 77 80 61 65 41 44 29 33 71 90 100 115 85 108 47 54 7 3 -2 18 2 -30 -54 23 108 130 163 120 89 76 78 17 27 -26 2 50 9 35
-44 -29 -14 17 34 59 103 68 39 34 4 6 48 31 97 113 110 98 93 11 18 40 2 3 19 13 4 -5 19 40 61 31 73 74 60 31 -3 -7 -27 19 43 60 62 101
-45 -25 -5 31 65 54 78 62 42 24 0 22 51 77 117 119 114 95 50 35 28 24 -6 12 51 69 11 22 29 106 95 110 122 26 2 -11 21 15 4 53 89 44 75 106
-30 -15 19 43 76 77 55 81 76 43 49 -16 1 60 82 68 43 57 55 41 8 -21 31 52 63 31 34 23 68 81 88 71 86 64 69 59 53 57 65 70 85 95 65 118
-19 6 38 49 92 110 53 41 49 37 21 26 27 104 30 19 -9 14 46 49 44 106 119 111 52 21 22 29 56 54 97 116 122 123 108 103 84 87 92 115 97 144 139 161
-15 8 26 45 79 108 68 46 46 44 44 16 22 4 18 37 7 12 59 123 125 190 181 104 74 15 32 60 71 83 114 112 105 131 106 104 183 116 99 92 80 116 109 171
-5 19 25 34 80 89 55 52 71 50 46 48 16 38 10 42 61 19 29 29 63 93 80 75 34 45 21 44 71 40 47 85 104 124 145 129 154 131 117 83 102 92 114 119
22 42 65 77 49 40 44 62 68 25 39 47 32 13 3 -1 53 67 72 23 72 98 68 67 78 75 75 57 55 71 100 100 94 117 115 146 174 181 148 98 87 89 97 122
29 47 59 46 57 41 43 56 29 69 47 34 43 27 20 -20 -20 -14 50 50 47 3 37 43 52 37 32 -34 92 86 70 70 82 82 63 113 122 69 49 75 98 95 91 122
46 40 37 26 32 47 42 14 26 26 35 41 50 38 31 21 42 29 35 29 -3 28 -8 -15 10 8 4 56 57 56 57 27 99 90 39 24 5 13 18 11 25 64 93 66
29 6 29 47 29 13 11 16 26 48 50 33 50 71 52 21 29 16 13 9 17 19 -12 24 15 -8 22 39 59 61 20 -20 -19 -5 18 26 11 -2 3 3 0 -4 11 43
28 50 54 29 -6 25 42 73 63 73 80 80 79 84 72 33 35 21 12 15 15 23 23 47 26 14 23 35 32 36 37 18 -26 -41 -80 -70 -55 -33 -23 -23 -31 -26 -18 -15
50 46 22 18 21 46 94 73 65 75 113 83 84 82 80 47 31 24 10 17 5 15 30 39 32 22 17 19 12 -4 3 5 -21 -21 -23 -30 -62 -59 -59 -59 -46 -36 -29 -25
34 40 51 41 37 53 77 51 55 73 79 84 59 70 58 39 43 45 25 52 71 21 36 44 40 48 38 28 28 10 9 12 2 -2 -10 -18 -19 -23 -32 -22 -19 -35 -23 -23
69 64 49 69 52 58 65 77 86 79 108 71 72 77 70 46 52 57 73 65 57 85 99 89 60 40 32 31 55 63 37 29 11 -2 -7 -14 -17 -17 -17 -20 -25 -8 -4 0
59 53 67 66 55 46 50 61 59 67 88 64 66 66 56 57 66 68 75 71 99 128 122 95 69 59 49 40 35 37 44 53 54 37 28 8 -8 -12 -18 -16 -9 -12 -14 -1
41 46 69 51 58 41 40 53 56 58 61 67 69 69 75 80 79 105 111 152 133 130 112 97 80 60 55 53 50 52 63 73 81 80 81 52 35 16 2 -11 -13 -12 -5 1
53 50 41 61 63 69 62 74 60 49 68 74 86 92 87 91 95 113 136 151 137 117 105 102 97 82 68 68 70 72 75 77 84 85 85 92 93 69 46 29 21 5 -4 -5
Wind_Speed
95 96 95 98 102 103 86 75 89 81 71 75 58 56 51 48 53 47 49 49 50 52 54 50 46 46 43 48 51 51 46 50 57 55 25 25 26 43 49 71 71 69 65 61
93 93 90 95 98 97 79 79 68 63 73 73 67 52 53 48 57 51 53 50 47 53 51 49 45 47 48 52 53 52 51 51 62 56 51 41 45 48 48 54 56 66 78 64
90 88 88 92 93 89 70 70 76 61 68 64 64 54 55 58 53 44 54 46 47 55 50 45 51 55 47 57 53 51 47 51 57 70 64 57 60 51 51 49 66 72 76 70
88 86 87 89 85 81 65 69 63 57 67 67 64 56 58 59 59 47 51 47 56 53 46 51 44 44 56 50 45 42 45 55 53 60 63 62 63 62 61 64 58 71 72 85
84 83 83 84 80 71 65 65 60 51 55 55 57 61 59 60 60 43 50 56 58 51 42 43 49 48 43 40 42 41 45 51 53 66 64 63 60 63 68 66 66 72 74 83
83 83 83 81 74 65 60 53 47 46 52 52 54 58 57 55 55 38 35 40 41 44 45 35 33 43 38 38 40 42 43 44 46 55 51 50 68 66 68 72 74 80 89 79
82 81 80 77 71 61 55 50 44 47 50 53 52 48 53 41 30 32 18 23 4 19 22 19 41 44 43 43 40 38 36 36 35 43 47 63 47 53 60 74 68 63 73 81
76 77 76 74 71 59 57 50 45 43 46 49 45 44 37 32 20 16 16 9 8 13 25 39 41 38 26 42 45 42 37 32 32 36 33 32 43 56 62 69 79 64 84 93
70 72 71 70 69 60 56 52 42 42 43 52 36 30 25 31 18 13 17 13 14 15 25 27 37 40 17 29 29 30 31 32 29 33 35 38 47 60 69 54 81 72 90 99
67 68 66 66 65 60 59 51 43 43 47 41 36 25 11 9 13 14 16 12 20 13 21 29 26 28 21 10 15 16 21 24 32 34 32 30 55 61 56 50 65 89 90 96
65 64 62 62 62 62 57 53 47 48 51 47 27 17 11 11 18 16 12 25 26 18 20 28 24 23 26 34 26 12 8 16 19 20 28 33 55 44 42 49 59 71 79 86
59 59 57 58 55 65 57 55 46 51 57 49 26 20 24 18 12 21 29 32 28 26 28 32 38 45 43 43 44 12 20 10 16 30 31 34 31 35 41 45 47 52 65 70
56 52 52 53 51 55 63 52 45 41 41 54 53 48 44 32 43 41 37 36 32 38 40 40 41 53 36 46 23 28 23 3 37 24 11 22 15 30 38 45 43 56 63 71
53 47 47 48 50 53 60 58 40 38 40 45 34 16 60 45 62 54 43 43 48 48 53 55 53 54 22 25 38 44 30 34 26 19 7 17 6 34 39 41 45 44 39 29
51 45 46 45 42 43 49 56 55 43 37 42 47 9 38 45 57 62 64 62 63 65 67 63 59 27 33 33 39 37 17 40 38 18 9 10 15 32 41 46 49 48 55 55
47 44 47 45 42 41 40 46 43 43 36 35 37 33 26 17 10 48 52 59 57 56 48 49 48 37 36 31 39 17 17 5 7 6 16 12 10 18 23 35 41 43 45 45
43 44 53 57 54 53 54 49 30 26 36 36 35 33 15 20 30 32 26 54 58 55 52 51 52 55 53 31 29 17 12 4 5 1 6 13 5 12 16 27 36 32 34 35
41 43 44 45 45 45 46 46 50 42 44 42 38 29 31 47 25 16 32 27 47 40 44 40 41 43 43 35 28 15 10 11 11 12 10 6 8 11 16 14 26 40 34 35
42 41 39 38 41 41 37 32 44 57 50 43 41 35 28 24 33 33 34 39 41 33 44 41 40 40 41 25 12 8 15 26 18 24 22 22 20 19 21 23 26 31 38 47
41 38 40 41 37 25 31 36 40 43 41 43 44 33 30 24 25 27 34 39 38 38 38 37 39 39 32 31 27 20 15 37 44 52 51 52 46 41 35 28 23 25 29 31
40 41 42 35 31 38 42 45 46 43 46 42 37 36 31 28 28 24 27 25 27 26 32 37 36 37 35 33 37 38 36 56 62 62 57 57 51 50 49 47 43 42 42 39
41 41 40 39 42 43 46 45 42 45 45 36 37 31 30 28 27 28 25 27 25 24 24 27 25 34 38 47 53 60 58 60 67 68 68 68 65 65 62 58 55 53 51 47
39 39 40 40 40 52 48 48 46 44 38 37 31 31 31 29 31 31 30 31 29 23 25 22 20 24 34 49 58 65 65 62 67 68 67 69 67 67 65 66 64 60 58 55
45 43 46 44 42 42 41 40 37 33 33 31 29 31 32 30 31 31 32 29 28 30 27 24 19 12 8 18 33 48 61 62 68 69 69 69 69 69 67 64 64 64 63 61
45 44 46 43 37 35 35 33 33 32 32 34 34 32 33 33 33 34 31 33 31 27 26 21 16 13 12 13 15 17 21 36 57 66 69 70 69 69 68 67 66 63 61 62
44 45 43 37 37 34 35 36 37 36 37 36 37 37 37 37 35 36 34 35 32 29 24 21 21 18 18 20 21 22 22 22 24 32 48 62 68 69 68 67 64 64 63 63
45 44 39 36 34 32 33 34 36 37 40 44 40 41 38 36 36 36 32 33 33 29 26 24 24 24 25 27 27 30 32 32 32 32 34 38 48 60 63 65 63 62 61 62
Wind_Direction
4 3 3 2 1 360 6 2 357 6 13 10 10 4 5 1 353 353 349 341 332 323 316 307 297 288 297 302 296 287 294 278 269 270 275 282 280 270 267 255 254 256 257 258
5 6 6 4 3 5 5 2 5 16 21 9 7 11 10 9 359 357 348 342 341 334 323 309 306 298 294 298 298 289 283 275 268 263 264 279 272 279 276 267 260 255 251 255
9 8 8 6 6 8 13 9 7 15 23 26 18 16 10 3 7 6 354 352 346 332 324 318 305 302 298 298 292 290 286 275 268 260 265 272 268 278 277 269 260 258 255 258
10 9 9 8 10 13 20 18 17 23 16 21 25 29 23 19 16 27 14 9 351 341 335 320 315 315 304 305 302 293 285 274 274 269 269 271 272 271 272 267 267 259 259 260
12 11 10 12 14 20 25 21 21 30 29 31 33 33 30 25 21 36 25 10 354 352 354 344 320 316 317 311 309 303 296 279 279 273 271 268 267 277 274 272 270 266 266 265
13 12 12 14 19 26 27 33 38 39 34 36 37 33 32 30 27 45 49 44 33 16 352 273 255 323 334 325 314 306 300 291 286 275 275 269 265 278 275 274 274 270 265 273
14 14 16 19 24 32 34 37 42 39 36 37 37 40 36 42 39 42 74 69 122 106 263 146 44 42 33 16 357 340 306 300 294 285 285 267 273 295 283 280 273 278 279 282
16 18 22 24 28 37 40 44 47 47 42 39 44 44 38 32 31 64 84 205 169 234 136 117 90 88 90 9 356 341 330 309 303 296 295 289 297 301 294 286 274 283 286 288
20 23 26 29 32 41 44 46 54 56 53 42 55 55 45 46 50 81 146 211 193 164 152 145 99 19 196 294 277 306 303 317 320 306 298 289 309 307 305 296 275 295 297 291
23 26 30 32 36 43 42 45 53 62 60 64 63 64 41 67 77 103 139 200 167 170 149 129 123 114 137 182 251 252 256 260 321 312 307 314 317 310 306 295 288 300 301 297
26 30 33 36 40 41 44 49 59 72 66 64 77 67 53 50 83 107 136 141 133 161 148 126 131 124 121 109 115 151 251 175 235 254 308 302 317 305 314 281 284 293 301 302
28 32 36 40 46 40 48 52 67 67 61 65 88 73 63 70 101 105 102 119 132 129 134 113 93 88 96 99 95 122 124 171 186 344 336 296 292 296 295 293 288 291 296 298
29 34 39 42 49 46 46 58 71 69 74 51 355 348 340 342 71 93 98 107 112 107 99 100 97 78 125 105 126 120 121 60 110 139 166 298 271 306 311 310 303 307 314 319
31 38 44 48 53 52 48 52 65 75 79 67 50 63 2 352 28 60 88 94 87 89 69 89 85 84 160 142 122 101 103 91 103 136 211 295 194 316 315 315 319 321 317 316
35 46 49 53 59 62 57 55 57 70 81 78 69 322 350 0 15 28 38 50 64 74 80 87 90 148 141 134 116 100 111 85 88 123 292 267 282 307 315 321 326 327 331 332
41 51 50 55 65 67 62 54 62 64 79 82 77 93 329 337 29 13 21 36 37 75 98 95 91 120 135 136 116 317 315 159 154 172 292 277 288 312 321 321 325 327 333 337
51 61 56 57 62 64 61 60 63 81 78 81 80 83 292 296 101 103 108 28 59 70 89 93 90 74 77 131 126 288 288 215 154 204 314 92 18 332 336 325 323 323 330 336
61 67 68 65 69 71 67 66 63 76 76 78 78 86 81 344 285 266 93 101 61 17 77 93 89 72 78 356 102 121 265 277 113 307 291 272 299 322 332 340 327 330 332 333
67 69 70 70 65 67 74 81 71 67 74 78 74 74 87 68 62 52 64 57 20 93 29 29 59 50 22 117 181 187 273 297 282 291 288 296 302 310 315 320 324 325 326 333
65 63 61 60 70 89 86 81 75 71 74 77 72 75 84 94 96 91 47 15 37 21 13 43 1 17 69 66 69 76 257 292 302 311 311 310 307 305 304 303 302 306 310 314
52 54 57 74 81 75 70 66 67 67 70 68 70 74 78 92 94 102 94 99 69 75 37 17 1 352 26 39 29 27 28 360 341 334 307 304 295 296 298 299 299 302 307 308
58 66 68 66 60 61 60 60 65 65 64 65 67 71 83 91 98 99 100 103 101 100 69 58 48 8 5 354 348 341 346 344 334 334 333 331 319 313 309 302 300 302 304 302
58 59 57 57 58 49 52 50 55 56 60 63 62 70 80 88 88 92 93 93 94 105 100 99 93 55 18 353 343 336 337 339 336 335 335 331 330 327 320 315 314 306 305 303
49 50 48 53 53 56 55 55 56 60 59 53 58 68 72 77 77 81 77 85 86 83 82 83 86 70 46 27 15 3 351 347 338 334 333 332 329 325 323 322 318 315 312 308
52 52 48 54 64 62 57 58 54 56 54 48 51 59 60 60 62 64 66 62 62 68 60 57 53 42 29 21 22 19 16 11 355 345 339 334 331 327 323 320 318 318 316 312
54 55 55 66 60 56 51 47 44 46 43 47 49 46 45 44 44 44 45 40 42 40 36 33 29 23 20 18 17 15 13 10 8 9 1 349 340 333 327 322 320 317 314 312
52 53 61 64 61 56 51 46 41 39 36 30 34 29 33 34 32 28 34 25 19 19 21 22 19 15 12 11 10 10 9 7 6 6 6 4 358 346 338 331 327 322 317 312